sat.trackr.live / text

‹ back to catalog

STARLINK-37683

NORAD 69367 · 2026-123Q

PAYLOAD ACTIVE UNKNOWN

§ Identity

Operator
Country
US
Launch date
2026-06-04
Launch site
AFETR
Launch vehicle
Mass (kg)
RCS (m²)

Purposes: comms

External: N2YO · Heavens-Above · Gunter

§ Orbital elements

Epoch: 2026-09-19T23:01:27.491808Z

Period
93.85 min
Inclination
53.1600°
Eccentricity
0.0000542
Mean motion
15.34402091 rev/d
Perigee alt
462.3 km
Apogee alt
463.1 km
Semi-major
6,840.8 km
B*
4.0719e-4
RAAN
144.4934°
Arg perigee
148.8385°
Mean anomaly
211.2650°
Rev number
1,678

§ Raw data

STARLINK-376831 69367U 26123Q   26262.95934597  .00013407  00000+0  40719-3 0  99922 69367  53.1600 144.4934 0000542 148.8385 211.2650 15.34402091 16783

JSON: /api/v1/satellites/69367 · /tle

For live sub-satellite position, see the globe view (requires WebGL).

§ Visibility from observer

Set your observer location to see the next 7 days of passes ≥ 10°. The values pass through the URL so the page stays shareable.

No JS? Fill the form by hand. The geolocation button needs JavaScript.